Regional Weather Roundup
Issued by NWS Sioux Falls, SD

Home | Current Version | Previous Version | Text Only | Print | Product List | Glossary On
Versions: 1 2 3 4 5 6 7 8 9 10 11 12 13 14 15 16 17 18 19 20 21 22 23 24 25 26 27 28 29 30 31 32 33 34 35 36 37 38 39 40 41 42 43 44 45 46 47 48 49 50
000
ASUS43 KFSD 272310
RWRFSD

WEATHER ROUNDUP FOR SE SOUTH DAKOTA/SW MINNESOTA/NW IOWA
NATIONAL WEATHER SERVICE SIOUX FALLS SD
500 PM CST SAT DEC 27 2014

NOTE: "FAIR" INDICATES FEW OR NO CLOUDS BELOW 12,000 FEET WITH NO
SIGNIFICANT WEATHER AND OR OBSTRUCTIONS TO VISIBILITY.


SDZ038>040-050-052>070-280000-
SOUTHEAST SOUTH DAKOTA

CITY           SKY/WX    TMP DP  RH WIND       PRES   REMARKS
CHAMBERLAIN    CLEAR     17  13  84 S6        30.11S WCI   9
HURON          CLEAR     17  11  77 SW8       30.12R WCI   7
MADISON        FAIR      12  12 100 SW9       30.10S WCI   0
MITCHELL       CLEAR     19  12  74 SW9       30.15S WCI   8
SIOUX FALLS    CLEAR     14   8  77 SW6       30.15R WCI   5
WINNER         FAIR      22  13  68 SW6       30.11S WCI  14
YANKTON        CLEAR     21  14  73 S5        30.20S WCI  15
$$

MNZ071-072-080-081-089-090-097-098-280000-
SOUTHWEST MINNESOTA

CITY           SKY/WX    TMP DP  RH WIND       PRES   REMARKS
FAIRMONT       CLEAR     16   7  67 W8        30.14R WCI   5
JACKSON        CLEAR     18  10  73 W7        30.13R WCI   8
LUVERNE        CLEAR     10   7  85 SW6       30.15S WCI   1
MARSHALL       CLEAR     18   9  68 SW16      30.09F WCI   3
MONTEVIDEO     MOCLDY    19  16  86 W5        30.11S WCI  13
PIPESTONE      CLEAR      7   3  85 W7        30.10S WCI  -5
REDWOOD FALLS  CLEAR     15   9  76 SW9       30.11F WCI   3
TRACY          CLEAR     15  10  81 SW13      30.11S WCI   1
WINDOM         CLEAR     12   9  85 SW6       30.12S WCI   3
WORTHINGTON    CLEAR     12 -29  14 SW8       30.14R WCI   1
$$

IAZ001>003-012>014-020>022-031-032-NEZ013-014-SDZ071-280000-
NORTHWEST IOWA

CITY           SKY/WX    TMP DP  RH WIND       PRES   REMARKS
CHEROKEE       CLEAR     15  11  84 W7        30.20R WCI   5
DENISON        CLEAR     21  14  73 W7        30.19S WCI  13
ESTHERVILLE    CLEAR     15   9  76 W9        30.15R WCI   3
LE MARS        CLEAR     16  12  86 SW5       30.21S WCI   9
ORANGE CITY    CLEAR     12   9  85 SW5       30.18R WCI   4
SHELDON        CLEAR     10   7  85 SW7       30.16R WCI   0
SIOUX CITY     CLEAR     16  10  77 W6        30.23R WCI   7
SPENCER        CLEAR     14   9  80 W10       30.17R WCI   1
STORM LAKE     CLEAR     14  10  85 W13       30.18S WCI   0
$$

ABBREVIATIONS USED IN REMARKS
   TC - TEMPERATURE IN CELSIUS
  WCI - WIND CHILL INDEX
   HX - HEAT INDEX
  VSB - VISIBILITY



USA.gov is the U.S. government's official web portal to all federal, state and local government web resources and services.